Regional Weather Roundup
Issued by NWS Green Bay, WI

Home | Current Version | Previous Version | Graphics & Text | Print | Product List | Glossary Off
Versions: 1 2 3 4 5 6 7 8 9 10 11 12 13 14 15 16 17 18 19 20 21 22 23 24 25 26 27 28 29 30 31 32 33 34 35 36 37 38 39 40 41 42 43 44 45 46 47 48 49 50

000
ASUS43 KGRB 011111
RWRGRB

NORTH-CENTRAL AND NORTHEAST WISCONSIN REGIONAL WEATHER ROUNDUP
NATIONAL WEATHER SERVICE GREEN BAY WI
600 AM CDT TUE SEP 01 2015

WIZ005-009-010>012-018-019-011200-
NORTH CENTRAL WISCONSIN

CITY           SKY/WX    TMP DP  RH WIND       PRES   REMARKS
IRONWOOD       PTCLDY    72  70  94 SW9       29.91R
MANITOWISH WTR CLOUDY    70  70 100 SW6       29.98S FOG
ARBOR VITAE    CLOUDY    69  68  96 CALM      29.99R FOG
EAGLE RIVER    MOCLDY    68  68 100 CALM      29.99S FOG
LAND O LAKES   CLOUDY    68  68  99 CALM      30.01R FOG
RHINELANDER    MOCLDY    68  67  96 SW6       30.01R FOG
PHILLIPS       CLOUDY    69  69 100 SW3       29.98R FOG
ANTIGO         MOCLDY    67  67  98 SW6       30.01S
TOMAHAWK       FOG       65  64  97 CALM      30.00S VSB 3/4
MERRILL        FOG       60  60 100 CALM      30.00R VSB 1/2
$$

WIZ013-073-011200-
NORTHEAST WISCONSIN

CITY           SKY/WX    TMP DP  RH WIND       PRES   REMARKS
IRON MOUNTAIN  CLEAR     63  62  97 CALM      29.98S FOG
MARINETTE      CLEAR     66  63  88 SW3       29.98S
OCONTO         MOCLDY    60  60 100 CALM      29.99R
$$

WIZ017-030-035>037-045-011200-
CENTRAL WISCONSIN

CITY           SKY/WX    TMP DP  RH WIND       PRES   REMARKS
MEDFORD        FOG       65  65 100 S3        29.99S VSB 1/2
WAUSAU         CLEAR     65  64  97 E5        29.98R FOG
MOSINEE        NOT AVBL
MARSHFIELD     FOG       66  63  90 S5        29.99S VSB 1/4
WISC RAPIDS    PTCLDY    67  65  93 CALM      30.00R FOG
STEVENS POINT  CLOUDY    66  65  97 CALM      30.00R FOG
WAUPACA        CLEAR     65  64  97 CALM      30.00R FOG
SHAWANO        CLEAR     67  66  95 CALM      29.99S FOG
CLINTONVILLE   FOG       61  61 100 CALM      29.99S VSB 1/4
WAUTOMA        CLEAR     63  63 100 CALM      30.00R FOG
$$

WIZ038-039-048-051-011200-
FOX VALLEY

CITY           SKY/WX    TMP DP  RH WIND       PRES   REMARKS
NWS GREEN BAY  CLEAR     67  65  93 S5        30.00R FOG
APPLETON       FOG       66  66 100 VRB3      29.99S VSB 1
OSHKOSH        CLEAR     69  66  90 S10       30.00R FOG
FOND DU LAC    PTCLDY    68  67  96 S5        30.01R FOG
$$

WIZ022-050-052-011200-
EAST CENTRAL WISCONSIN

CITY           SKY/WX    TMP DP  RH WIND       PRES   REMARKS
EPHRAIM        FAIR      64  63  99 CALM      29.99S FOG
STURGEON BAY   CLEAR     66  63  88 S6        30.02S
MANITOWOC      CLEAR     54  54 100 MISG      30.02R FOG
SHEBOYGAN      CLEAR     62  61  96 S5        30.02R FOG
$$

LMZ563-521-522-541>543-011200-
LAKESHORE

STATION/POSITION TIME  TEMP    WIND        PRES    VSBY  WAVE
                       AIR SEA DIR/SP/G                  HT/PER
                 (UTC) (F)     (DEG/KT/KT) (MB)    (MI)  (FT/S)
SHEBOYGAN LKSHOR 1100   63     180/  9/  9 1016.5R
KEWAUNEE LKSHORE 1000   51     160/  5/  6 1015.0F
NORTHPORT PIER   1000   65     160/  4/  6 1015.2F
N MID LAKE BUOY  1050   64 65  200/ 14/ 16 1015.5R         2/ 4
S GREEN BAY BUOY 1100   67 64  180/  6/  8 1016.9R
CHAMBERS ISLAND  1000   66     180/  3/  7 1015.2F
MENOMINEE LKSHOR 1000   66     190/  5/  6 1014.2F
$$


USA.gov is the U.S. government's official web portal to all federal, state and local government web resources and services.